STARLINK-1318, 45416

Orbit data source: Space-Track

STARLINK-1318, 45416 is a payload satellite owned by SpaceX/Seattle (US) in LEO that was launched on Wed, 18 Mar 2020 UTC via an FALCON 9 launch vehicle from the Air Force Eastern Test Range (AFETR). Payload-class satellites include a variety of spacecraft equipped with specific instruments for various scientific and technological missions. These include communications satellites like Starlink; space stations such as the ISS; scientific satellites like the Hubble; Earth observation satellites from companies like Planet Labs, Umbra, and HawkEye 360; GPS; miniature CubeSats for education and research; and military/defense satellites.

Loading next visibility...
Identifier
45416, 2020-019BJ
Orbit
LEO
Country
Flag of USUS
Related business
Manufacturer
SpaceX/Seattle
Mission
Partially operational Commercial Communications
Bus & Motor
STARLINK, Unknown motor
Mass
260 kg wet, ~248 kg dry
Launch date (UTC)
2020-03-18 (6 years ago)
Launch vehicle
FALCON 9
Launch site
Air Force Eastern Test Range (AFETR)
Object type
Payload
Rocket body
Debris
Shape & HBR
Box + 1 Pan, 10.1 m
Radar Cross Section
13.562 m², Large (>1 m²)

Expand to show TLE details & history
Last TLE update: 10 hours ago

TLE from 10 hours ago
0 STARLINK-1318
1 45416U 20019BJ  25288.47290704  .00054527  00000-0  70591-3 0  9998
2 45416  53.0527  42.2104 0002578 342.3223  17.7699 15.58386067308355
Epoch: 2025-10-15T11:20Z
TLE epoch observation values (Epoch: 2025-10-15T11:20:59.168Z)
Latitude
0.00003°
Longitude
-152.28259°
Altitude
391.564 km
Speed
7.677 km/s
True Right ascension
02h 48m 50s
True Declination
0° 00' 00"
Sunlit
Object was in full shadow at epoch
Visualization orbit readout
Latitude
Unknown
Longitude
Unknown
Altitude
Unknown
Speed
Unknown
Apparent Right ascension
Unknown
Apparent Declination
Unknown
Sunlit
N/A
Visualization observer readout
Local Sidereal Time
16:07:02
Azimuth
Unknown
Elevation
Unknown
Doppler factor
Unknown
Orbital elements
Apogee altitude
394.35 km
Perigee altitude
390.859 km
Semi-major axis
6,770.742 km
Eccentricity
0.00026
Inclination
53.0527°
RAAN
42.2104°
Arg. of periapsis
342.3223°
True anomaly
17.77892°
Mean anomaly
17.7699°
Eccentric anomaly
17.77441°
Mean motion
3.89573 °/min
Orbital period
92.41 mins
BSTAR
0.00070591
Loading maneuver chart data...
Computing Atmospheric mass density...
Loading historical data...
Loading historical data...
Loading historical data...
Loading historical data...
Loading historical data...
Loading historical data...
Loading historical data...

Documentation

Showing up to 5 results
|